Regional Weather Roundup
Issued by NWS

Home | Current Version | Previous Version | Graphics & Text | Print | Product List | Glossary On
Versions: 1 2 3 4 5 6 7 8 9 10 11 12 13 14 15 16 17 18 19 20 21 22 23 24 25 26 27 28 29 30 31 32 33 34 35 36 37 38 39 40 41 42 43 44 45 46 47 48 49 50
294
ASUS45 KBOU 051507
RWRCO

WEATHER ROUNDUP FOR COLORADO
NATIONAL WEATHER SERVICE DENVER/BOULDER CO
800 AM MST MON DEC 05 2016

NOTE: "FAIR" INDICATES FEW OR NO CLOUDS BELOW 12000 FEET WITH NO
SIGNIFICANT WEATHER AND/OR OBSTRUCTIONS TO VISIBILITY.

COZ001>005-013-030-031-051600-
...NORTHWEST COLORADO...

CITY           SKY/WX    TMP DP  RH WIND       PRES   REMARKS
CRAIG          CLOUDY    30  15  53 W14       29.74R WCI  19
HAYDEN         CLOUDY    28  12  50 NW13      29.70R WCI  18
MEEKER         CLOUDY    35  17  47 SW14      29.74R WCI  26
MOUNT WERNER   NOT AVBL
STEAMBOAT SPGS CLOUDY    27  19  74 CALM      29.70R
WALDEN           N/A     30  18  59 SW17      29.65F WCI  18
$$

COZ006>008-011-051600-
...WEST CENTRAL VALLEYS...

CITY           SKY/WX    TMP DP  RH WIND       PRES   REMARKS
GRAND JUNCTION FAIR      26  20  77 E6        29.84R WCI  19
MONTROSE       CLOUDY    30  20  66 CALM      29.83R
EAGLE          MOCLDY    30  18  59 CALM      29.77R
RIFLE          FAIR      23  18  81 W3        29.82R
DELTA          FAIR      30  21  69 CALM      29.83R
NUCLA          FAIR      25  18  74 SE6       29.89R WCI  18
$$

COZ017>023-064>068-051600-
...SOUTHWEST COLORADO...

CITY           SKY/WX    TMP DP  RH WIND       PRES   REMARKS
DURANGO        FAIR      20  16  84 E5        29.90S WCI  13
CORTEZ         CLOUDY    25  22  88 SE3       29.89F
PAGOSA SPRINGS FAIR      17  16  95 CALM      29.91F
TELLURIDE      NOT AVBL
WOLF CREEK PAS FAIR      14  10  85 SW15G23   29.92F WCI  -1
$$

COZ009-010-012-014-032>034-037-058>063-051600-
...CENTRAL COLORADO...

CITY           SKY/WX    TMP DP  RH WIND       PRES   REMARKS
ASPEN          CLOUDY    31  16  54 NW3       29.74R
BUENA VISTA    CLOUDY    35  14  42 CALM      29.74R
COPPER MTN     CLOUDY    23  16  74 MISG      29.73S
BERTHOUD PASS  SNOW      14   1  57 W33G47    29.65F VSB 1/4 WCI  -8
COTTONWOOD PAS CLOUDY    32  14  47 CALM      29.75S
GUNNISON       FAIR      15   8  73 CALM      29.85S
KREMMLING      CLOUDY    39  18  41 W14G25    29.70R
LEADVILLE      LGT SNOW  25  16  68 NW9       29.74R WCI  15
MONARCH PASS   CLOUDY    18  10  73 W32G38    29.87F WCI  -3
SALIDA         CLOUDY    37  14  38 SW16G24   29.82S
SUNLIGHT       CLOUDY    19  12  73 SW23G41   29.77S HAZE    WCI   2
WILKERSON PASS CLOUDY    25  12  58 SW16G29   29.75R WCI  12
$$

COZ069>075-051600-
...SAN LUIS VALLEY/SANGRE DE CRISTO MOUNTAINS...

CITY           SKY/WX    TMP DP  RH WIND       PRES   REMARKS
ALAMOSA        FAIR       2  -2  83 N5        29.83F WCI  -8
LA VETA PASS   FAIR      27  12  54 NE24G37   29.78R WCI  12
SAGUACHE       FAIR      18   9  68 NW9       29.84F WCI   6
$$

COZ035-036-038>040-051600-
...NORTHERN COLORADO FRONT RANGE...

CITY           SKY/WX    TMP DP  RH WIND       PRES   REMARKS
DENVER INTL AP FAIR      41  16  36 NW3       29.60R
DMNS CITY PARK   N/A     46  20  36 W8        29.60R
AURORA         NOT AVBL
FRONT RANGE AP MOCLDY    32  19  59 W3        29.61R
ERIE MUNI ARPT MOCLDY    47  21  36 W7        29.62R
BOULDER MUN AP MOCLDY    50  21  32 SW16G26   29.61R
CENTENNIAL     MOCLDY    42  19  39 N9        29.61R
BROOMFIELD     MOCLDY    48  23  37 W18G24    29.62R
FORT COLLINS   FAIR      43  25  49 SW13      29.60R
LONGMONT       FAIR      50  21  32 SW14      29.62S
$$

COZ041-046-047-076>085-087-088-051600-
...PIKES PEAK/PALMER DIVIDE AND SOUTHERN FOOTHILLS...

CITY           SKY/WX    TMP DP  RH WIND       PRES   REMARKS
COLO. SPRINGS  FAIR      39  13  34 VRB5      29.62S
A. F. ACADEMY  NOT AVBL
SCHRIEVER AFB  NOT AVBL
ELLICOTT       FAIR     N/A N/A N/A SE5       29.61S
FALCON         FAIR      40  12  32 N3        29.64S
FORT CARSON    NOT AVBL
LIMON          FAIR      27  17  66 N7        29.59S WCI  19
MONUMENT HILL  FAIR      41  16  36 W9        29.66R
TRINIDAD       FAIR      32  13  45 W12       29.67F WCI  23
$$

COZ042>045-048>051-090-091-051600-
...NORTHEAST COLORADO...

CITY           SKY/WX    TMP DP  RH WIND       PRES   REMARKS
GREELEY ARPT   FAIR      43  23  45 W17G23    29.58F
AKRON          CLOUDY    39  17  41 SW8       29.60R
BURLINGTON     FAIR      33  17  51 SW7       29.58F WCI  27
WRAY           NOT AVBL
STERLING       FAIR      25  18  74 SW8       29.60R WCI  16
HOLYOKE        FAIR      37  21  52 W7        29.59S
FORT MORGAN    FAIR      27  16  63 W5        29.60R WCI  22
$$

COZ086-089-092>099-051600-
...SOUTHEAST COLORADO...

CITY           SKY/WX    TMP DP  RH WIND       PRES   REMARKS
PUEBLO         FAIR      30  16  56 SW6       29.61S WCI  24
LA JUNTA       FAIR      35  20  54 W8        29.61F WCI  29
LAMAR          MIX PCPN  21  15  78 CALM      29.60F
SPRINGFIELD      N/A     37  20  50 CALM      29.60F
$$




USA.gov is the U.S. government's official web portal to all federal, state and local government web resources and services.